Volver al catálogo

HULIANWANG DIGUI-46

ActivoComunicacionesLEO
NORAD 65049·PAYLOAD·🇨🇳 China

Lanzado Jul 30, 2025 desde Wenchang Space Launch Site

Loading…

Próximos Pases (próximas 24 horas)

TLE

ActualizadoSource: Space-Track

Época: Sep 14, 2026, 21:07 UTC

1 65049U 25162G   26257.88017988 -.00000087  00000-0  79071-4 0  9995
2 65049  50.0070 304.0037 0000698 263.5550  96.5242 13.29330621 55293

Sigue HULIANWANG DIGUI-46 en tiempo real con AllMySat

Download on the App Store